Pittsfield, MA

10:34 PM EDT on March 24, 2017 (GMT -0400)
Pittsfield Municipal

Weather History for KPSF - April, 2013

Change the Weather History Date:

Saturday, April 13, 2013

  Actual Average Record
Temperature  
Mean Temperature 40 °F 43 °F  
Max Temperature 48 °F 54 °F 82 °F (1945)
Min Temperature 32 °F 33 °F 18 °F (1967)
Degree Days  
Heating Degree Days 25 22  
Month to date heating degree days 330 318  
Since 1 July heating degree days 6324 6725  
Cooling Degree Days 0 0  
Month to date cooling degree days 0 0  
Year to date cooling degree days 0 0  
Moisture  
Dew Point 33 °F    
Average Humidity 80    
Maximum Humidity 100    
Minimum Humidity 60    
Precipitation  
Precipitation 0.01 in 0.13 in 1.05 in (2004)
Month to date precipitation 1.18 2.04  
Year to date precipitation 6.60 11.01  
Sea Level Pressure  
Sea Level Pressure 29.82 in    
Wind  
Wind Speed 3 mph (WNW)    
Max Wind Speed 14 mph    
Max Gust Speed 20 mph    
Visibility 9 miles    
Events Rain    
T = Trace of Precipitation, MM = Missing Value Source: NWS Daily Summary

Daily Weather History Graph

Daily Weather History Graph

Search for Another Location

Airport or City:

Trip Planner

Search our weather history database for the weather conditions in past years. The results will help you decide how hot, cold, wet, or windy it might be!

Date:

Astronomy

Apr. 13, 2013 Rise Set
Actual Time 6:15 AM EDT 7:32 PM EDT
Civil Twilight 5:45 AM EDT 8:02 PM EDT
Nautical Twilight 5:11 AM EDT 8:37 PM EDT
Astronomical Twilight 4:34 AM EDT 9:14 PM EDT
Moon 8:01 AM EDT (4/13) 10:58 PM EDT (4/13)
Length of Visible Light 14h 16m
Length of Day
13h 17m
Waxing Crescent, 10% of the Moon is Illuminated
Apr 13
Waxing Crescent
Apr 18
First Quarter
Apr 25
Full
May 2
Last Quarter
May 9
New

Hourly Weather History & Observations

Time (EDT) Temp. Windchill Dew Point Humidity Pressure Visibility Wind Dir Wind Speed Gust Speed Precip Events Conditions
12:32 AM 33.8 °F 29.6 °F 30.2 °F 87% 29.79 in 10.0 mi ENE 4.6 mph - N/A   Overcast
12:54 AM 33.1 °F 28.7 °F 30.9 °F 92% 29.81 in 4.0 mi NE 4.6 mph - 0.02 in Rain Light Rain
1:11 AM 33.8 °F 29.6 °F 30.2 °F 87% 29.76 in 6.0 mi North 4.6 mph - 0.00 in Rain Light Rain
1:54 AM 33.1 °F - 30.9 °F 92% 29.81 in 10.0 mi Calm Calm - 0.01 in   Overcast
2:54 AM 33.1 °F 30.0 °F 30.9 °F 92% 29.80 in 10.0 mi NNE 3.5 mph - N/A   Overcast
3:49 AM 33.8 °F - 30.2 °F 87% 29.78 in 4.0 mi Calm Calm - N/A   Overcast
3:54 AM 33.1 °F - 30.9 °F 92% 29.80 in 3.0 mi Calm Calm - N/A   Overcast
4:04 AM 33.8 °F - 30.2 °F 87% 29.78 in 2.5 mi Calm Calm - N/A   Overcast
4:17 AM 33.8 °F - 30.2 °F 87% 29.77 in 3.0 mi Calm Calm - N/A   Overcast
4:54 AM 32.0 °F - 32.0 °F 100% 29.79 in 6.0 mi Calm Calm - N/A   Overcast
5:54 AM 33.1 °F - 30.9 °F 92% 29.81 in 10.0 mi Calm Calm - N/A   Overcast
6:11 AM 33.8 °F - 32.0 °F 93% 29.79 in 10.0 mi Calm Calm - N/A   Overcast
6:54 AM 33.1 °F - 32.0 °F 96% 29.81 in 10.0 mi Calm Calm - N/A   Overcast
7:54 AM 34.0 °F - 32.0 °F 92% 29.83 in 10.0 mi Calm Calm - N/A   Overcast
8:54 AM 36.0 °F - 33.1 °F 89% 29.83 in 10.0 mi Calm Calm - N/A   Overcast
9:54 AM 39.0 °F 35.7 °F 34.0 °F 82% 29.83 in 10.0 mi West 4.6 mph - N/A   Overcast
10:54 AM 41.0 °F 36.4 °F 35.1 °F 79% 29.84 in 10.0 mi West 6.9 mph - N/A   Overcast
11:10 AM 41.0 °F 36.4 °F 33.8 °F 76% 29.83 in 10.0 mi Variable 6.9 mph - N/A   Overcast
11:38 AM 42.8 °F 36.6 °F 33.8 °F 70% 29.83 in 10.0 mi WNW 11.5 mph - N/A   Overcast
11:54 AM 42.1 °F 37.7 °F 34.0 °F 73% 29.85 in 10.0 mi WNW 6.9 mph - N/A   Overcast
12:08 PM 42.8 °F 37.0 °F 33.8 °F 70% 29.83 in 10.0 mi West 10.4 mph - N/A   Overcast
12:25 PM 42.8 °F 37.5 °F 33.8 °F 70% 29.82 in 10.0 mi WNW 9.2 mph - N/A   Overcast
12:54 PM 46.0 °F 41.0 °F 34.0 °F 63% 29.82 in 10.0 mi West 10.4 mph - N/A   Overcast
1:54 PM 46.9 °F - 33.1 °F 59% 29.81 in 10.0 mi Variable 4.6 mph 16.1 mph N/A   Mostly Cloudy
2:54 PM 46.9 °F - 34.0 °F 61% 29.81 in 10.0 mi NW 6.9 mph - N/A   Overcast
3:54 PM 46.0 °F 43.1 °F 34.0 °F 63% 29.81 in 10.0 mi WNW 5.8 mph - N/A   Overcast
4:54 PM 46.0 °F 44.8 °F 33.1 °F 61% 29.83 in 10.0 mi WSW 3.5 mph - N/A   Overcast
5:54 PM 46.0 °F - 33.1 °F 61% 29.83 in 10.0 mi Calm Calm - N/A   Overcast
6:54 PM 45.0 °F - 34.0 °F 65% 29.86 in 10.0 mi Calm Calm - N/A   Overcast
8:54 PM 42.1 °F 40.2 °F 36.0 °F 79% 29.89 in 10.0 mi WSW 3.5 mph - 0.00 in   Overcast
9:54 PM 39.9 °F - 34.0 °F 79% 29.92 in 10.0 mi Calm Calm - 0.00 in   Overcast
10:54 PM 39.9 °F - 34.0 °F 79% 29.91 in 10.0 mi Calm Calm - N/A   Overcast
11:54 PM 37.9 °F - 34.0 °F 86% 29.90 in 10.0 mi Calm Calm - N/A   Overcast